Time,TemperatureF,DewpointF,PressureIn,WindDirection,WindDirectionDegrees,WindSpeedMPH,WindSpeedGustMPH,Humidity,HourlyPrecipIn,Conditions,Clouds,dailyrainin,SolarRadiationWatts/m^2,SoftwareType,DateUTC
2013-07-25 00:32:00,68.0,27.0,-100.00,North,353,5.0,6.0,21,-99.99,,,0.00,0.000000,,2013-07-25 06:32:00,
2013-07-25 00:42:00,68.0,27.0,-100.00,North,353,5.0,6.0,21,-99.99,,,0.00,0.000000,,2013-07-25 06:42:00,
2013-07-25 00:52:00,68.0,27.0,-100.00,North,353,5.0,6.0,21,-99.99,,,0.00,0.000000,,2013-07-25 06:52:00,
2013-07-25 01:02:00,68.0,27.0,-100.00,North,353,5.0,6.0,21,-99.99,,,0.00,0.000000,,2013-07-25 07:02:00,
2013-07-25 01:33:00,67.0,26.0,-100.00,SSE,159,4.0,7.0,21,-99.99,,,0.00,0.000000,,2013-07-25 07:33:00,
2013-07-25 01:43:00,67.0,26.0,-100.00,SSE,159,4.0,7.0,21,-99.99,,,0.00,0.000000,,2013-07-25 07:43:00,
2013-07-25 01:53:00,67.0,26.0,-100.00,SSE,159,4.0,7.0,21,-99.99,,,0.00,0.000000,,2013-07-25 07:53:00,
2013-07-25 02:32:00,65.0,26.0,-100.00,North,2,7.0,9.0,23,-99.99,,,0.00,0.000000,,2013-07-25 08:32:00,
2013-07-25 02:44:00,65.0,26.0,-100.00,North,2,7.0,9.0,23,-99.99,,,0.00,0.000000,,2013-07-25 08:44:00,
2013-07-25 02:52:00,65.0,26.0,-100.00,North,2,7.0,9.0,23,-99.99,,,0.00,0.000000,,2013-07-25 08:52:00,
2013-07-25 03:33:00,61.0,31.0,-100.00,North,2,11.0,15.0,32,-99.99,,,0.00,0.000000,,2013-07-25 09:33:00,
2013-07-25 03:43:00,61.0,31.0,-100.00,North,2,11.0,15.0,32,-99.99,,,0.00,0.000000,,2013-07-25 09:43:00,
2013-07-25 03:53:00,61.0,31.0,-100.00,North,2,11.0,15.0,32,-99.99,,,0.00,0.000000,,2013-07-25 09:53:00,
2013-07-25 04:02:00,61.0,31.0,-100.00,North,2,11.0,15.0,32,-99.99,,,0.00,0.000000,,2013-07-25 10:02:00,
2013-07-25 04:32:00,59.0,35.0,-100.00,North,7,9.0,16.0,40,0.00,,,0.00,0.000000,,2013-07-25 10:32:00,
2013-07-25 04:42:00,59.0,35.0,-100.00,North,7,9.0,16.0,40,0.00,,,0.00,0.000000,,2013-07-25 10:42:00,
2013-07-25 04:53:00,59.0,35.0,-100.00,North,7,9.0,16.0,40,0.00,,,0.00,0.000000,,2013-07-25 10:53:00,
2013-07-25 05:02:00,59.0,35.0,-100.00,North,7,9.0,16.0,40,0.00,,,0.00,0.000000,,2013-07-25 11:02:00,
2013-07-25 05:32:00,59.0,37.0,-100.00,North,9,10.0,16.0,44,0.00,,,0.00,0.000000,,2013-07-25 11:32:00,
2013-07-25 05:43:00,59.0,37.0,-100.00,North,9,10.0,16.0,44,0.00,,,0.00,0.000000,,2013-07-25 11:43:00,
2013-07-25 05:52:00,59.0,37.0,-100.00,North,9,10.0,16.0,44,0.00,,,0.00,0.000000,,2013-07-25 11:52:00,
2013-07-25 06:02:00,59.0,37.0,-100.00,North,9,10.0,16.0,44,0.00,,,0.00,0.000000,,2013-07-25 12:02:00,
2013-07-25 06:32:00,59.0,37.0,-100.00,North,5,8.0,12.0,43,0.00,,,0.00,0.000000,,2013-07-25 12:32:00,
2013-07-25 06:45:00,59.0,37.0,-100.00,North,5,8.0,12.0,43,0.00,,,0.00,0.000000,,2013-07-25 12:45:00,
2013-07-25 06:53:00,59.0,37.0,-100.00,North,5,8.0,12.0,43,0.00,,,0.00,0.000000,,2013-07-25 12:53:00,
2013-07-25 07:02:00,59.0,37.0,-100.00,North,5,8.0,12.0,43,0.00,,,0.00,0.000000,,2013-07-25 13:02:00,
2013-07-25 07:43:00,60.0,37.0,-100.00,North,7,8.0,11.0,43,0.00,,,0.00,28.000000,,2013-07-25 13:43:00,
2013-07-25 07:53:00,60.0,37.0,-100.00,North,7,8.0,11.0,43,0.00,,,0.00,28.000000,,2013-07-25 13:53:00,
2013-07-25 08:02:00,60.0,37.0,-100.00,North,7,8.0,11.0,43,0.00,,,0.00,28.000000,,2013-07-25 14:02:00,
2013-07-25 08:33:00,62.0,40.0,-100.00,North,10,7.0,13.0,44,0.00,,,0.00,225.000000,,2013-07-25 14:33:00,
2013-07-25 08:43:00,62.0,40.0,-100.00,North,10,7.0,13.0,44,0.00,,,0.00,225.000000,,2013-07-25 14:43:00,
2013-07-25 08:53:00,62.0,40.0,-100.00,North,10,7.0,13.0,44,0.00,,,0.00,225.000000,,2013-07-25 14:53:00,
2013-07-25 09:02:00,62.0,40.0,-100.00,North,10,7.0,13.0,44,0.00,,,0.00,225.000000,,2013-07-25 15:02:00,
2013-07-25 09:44:00,67.0,41.0,-100.00,North,3,5.0,8.0,39,0.00,,,0.00,406.000000,,2013-07-25 15:44:00,
2013-07-25 09:53:00,67.0,41.0,-100.00,North,3,5.0,8.0,39,0.00,,,0.00,406.000000,,2013-07-25 15:53:00,
2013-07-25 10:02:00,67.0,41.0,-100.00,North,3,5.0,8.0,39,0.00,,,0.00,406.000000,,2013-07-25 16:02:00,
2013-07-25 10:45:00,70.0,41.0,-100.00,SW,233,4.0,6.0,35,0.00,,,0.00,227.000000,,2013-07-25 16:45:00,
2013-07-25 10:53:00,70.0,41.0,-100.00,SW,233,4.0,6.0,35,0.00,,,0.00,227.000000,,2013-07-25 16:53:00,
2013-07-25 11:02:00,70.0,41.0,-100.00,SW,233,4.0,6.0,35,0.00,,,0.00,227.000000,,2013-07-25 17:02:00,
2013-07-25 11:43:00,73.0,38.0,-100.00,SSW,195,6.0,9.0,28,0.00,,,0.00,795.000000,,2013-07-25 17:43:00,
2013-07-25 11:53:00,73.0,38.0,-100.00,SSW,195,6.0,9.0,28,0.00,,,0.00,795.000000,,2013-07-25 17:53:00,
2013-07-25 12:02:00,73.0,38.0,-100.00,SSW,195,6.0,9.0,28,0.00,,,0.00,795.000000,,2013-07-25 18:02:00,
2013-07-25 12:33:00,79.0,33.0,-100.00,West,270,4.0,14.0,19,0.00,,,0.00,944.000000,,2013-07-25 18:33:00,
2013-07-25 12:43:00,79.0,33.0,-100.00,West,270,4.0,14.0,19,0.00,,,0.00,944.000000,,2013-07-25 18:43:00,
2013-07-25 12:52:00,79.0,33.0,-100.00,West,270,4.0,14.0,19,0.00,,,0.00,944.000000,,2013-07-25 18:52:00,
2013-07-25 13:02:00,79.0,33.0,-100.00,West,270,4.0,14.0,19,0.00,,,0.00,944.000000,,2013-07-25 19:02:00,
2013-07-25 13:43:00,81.0,27.0,-100.00,SW,234,7.0,15.0,14,0.00,,,0.00,1128.000000,,2013-07-25 19:43:00,
2013-07-25 13:53:00,81.0,27.0,-100.00,SW,234,7.0,15.0,14,0.00,,,0.00,1128.000000,,2013-07-25 19:53:00,
2013-07-25 14:02:00,81.0,27.0,-100.00,SW,234,7.0,15.0,14,0.00,,,0.00,1128.000000,,2013-07-25 20:02:00,
2013-07-25 14:32:00,80.0,30.0,-100.00,West,281,7.0,16.0,16,0.00,,,0.00,982.000000,,2013-07-25 20:32:00,
2013-07-25 14:43:00,80.0,30.0,-100.00,West,281,7.0,16.0,16,0.00,,,0.00,982.000000,,2013-07-25 20:43:00,
2013-07-25 14:53:00,80.0,30.0,-100.00,West,281,7.0,16.0,16,0.00,,,0.00,982.000000,,2013-07-25 20:53:00,
2013-07-25 15:02:00,80.0,30.0,-100.00,West,281,7.0,16.0,16,0.00,,,0.00,982.000000,,2013-07-25 21:02:00,
2013-07-25 15:44:00,82.0,31.0,-100.00,WNW,288,7.0,16.0,16,0.00,,,0.00,690.000000,,2013-07-25 21:44:00,
2013-07-25 15:52:00,82.0,31.0,-100.00,WNW,288,7.0,16.0,16,0.00,,,0.00,690.000000,,2013-07-25 21:52:00,
2013-07-25 16:02:00,82.0,31.0,-100.00,WNW,288,7.0,16.0,16,0.00,,,0.00,690.000000,,2013-07-25 22:02:00,
2013-07-25 16:33:00,83.0,31.0,-100.00,WNW,284,7.0,20.0,15,0.00,,,0.00,558.000000,,2013-07-25 22:33:00,
2013-07-25 16:43:00,83.0,31.0,-100.00,WNW,284,7.0,20.0,15,0.00,,,0.00,558.000000,,2013-07-25 22:43:00,
2013-07-25 16:52:00,83.0,31.0,-100.00,WNW,284,7.0,20.0,15,0.00,,,0.00,558.000000,,2013-07-25 22:52:00,
2013-07-25 17:02:00,83.0,31.0,-100.00,WNW,284,7.0,20.0,15,0.00,,,0.00,558.000000,,2013-07-25 23:02:00,
2013-07-25 17:32:00,83.0,31.0,-100.00,WNW,300,9.0,21.0,15,0.00,,,0.00,736.000000,,2013-07-25 23:32:00,
2013-07-25 17:43:00,83.0,31.0,-100.00,WNW,300,9.0,21.0,15,0.00,,,0.00,736.000000,,2013-07-25 23:43:00,
2013-07-25 17:52:00,83.0,31.0,-100.00,WNW,300,9.0,21.0,15,0.00,,,0.00,736.000000,,2013-07-25 23:52:00,
2013-07-25 18:02:00,83.0,31.0,-100.00,WNW,300,9.0,21.0,15,0.00,,,0.00,736.000000,,2013-07-26 00:02:00,
2013-07-25 18:33:00,80.0,30.0,-100.00,NW,306,14.0,21.0,16,0.00,,,0.00,497.000000,,2013-07-26 00:33:00,
2013-07-25 18:43:00,80.0,30.0,-100.00,NW,306,14.0,21.0,16,0.00,,,0.00,497.000000,,2013-07-26 00:43:00,
2013-07-25 18:52:00,80.0,30.0,-100.00,NW,306,14.0,21.0,16,0.00,,,0.00,497.000000,,2013-07-26 00:52:00,
2013-07-25 19:02:00,80.0,30.0,-100.00,NW,306,14.0,21.0,16,0.00,,,0.00,497.000000,,2013-07-26 01:02:00,
2013-07-25 19:43:00,79.0,29.0,-100.00,NNW,327,15.0,26.0,16,0.00,,,0.00,448.000000,,2013-07-26 01:43:00,
2013-07-25 19:52:00,79.0,29.0,-100.00,NNW,327,15.0,26.0,16,0.00,,,0.00,448.000000,,2013-07-26 01:52:00,
2013-07-25 20:02:00,79.0,29.0,-100.00,NNW,327,15.0,26.0,16,0.00,,,0.00,448.000000,,2013-07-26 02:02:00,
2013-07-25 21:44:00,74.0,32.0,-100.00,NW,313,13.0,22.0,21,-99.99,,,0.00,63.000000,,2013-07-26 03:44:00,
2013-07-25 21:53:00,74.0,32.0,-100.00,NW,313,13.0,22.0,21,-99.99,,,0.00,63.000000,,2013-07-26 03:53:00,
2013-07-25 22:02:00,74.0,32.0,-100.00,NW,313,13.0,22.0,21,-99.99,,,0.00,63.000000,,2013-07-26 04:02:00,
2013-07-25 22:32:00,71.0,31.0,-100.00,WNW,289,6.0,17.0,23,0.00,,,0.00,1.000000,,2013-07-26 04:32:00,
2013-07-25 22:43:00,71.0,31.0,-100.00,WNW,289,6.0,17.0,23,0.00,,,0.00,1.000000,,2013-07-26 04:43:00,
2013-07-25 22:53:00,71.0,31.0,-100.00,WNW,289,6.0,17.0,23,0.00,,,0.00,1.000000,,2013-07-26 04:53:00,
2013-07-25 23:02:00,71.0,31.0,-100.00,WNW,289,6.0,17.0,23,0.00,,,0.00,1.000000,,2013-07-26 05:02:00,
2013-07-25 23:32:00,71.0,30.0,-100.00,NW,304,3.0,7.0,22,0.00,,,0.00,0.000000,,2013-07-26 05:32:00,
2013-07-25 23:43:00,71.0,30.0,-100.00,NW,304,3.0,7.0,22,0.00,,,0.00,0.000000,,2013-07-26 05:43:00,
2013-07-25 23:52:00,71.0,30.0,-100.00,NW,304,3.0,7.0,22,0.00,,,0.00,0.000000,,2013-07-26 05:52:00,